Location: Baumgarten
(49.0970°N, 12.7493°E)
Time: 03:03:58
(UTC+00:00)

NOSS 3-3 (C) - Pass Details

Date: 05 July 2020
Orbit: 824 x 1388 km, 63.4° (Epoch: 01 August)

Event Time Altitude Azimuth Distance (km) Brightness Sun altitude
Rises 20:27:01 0° 194° (SSW) 3,398 6.5 -9.2°
Reaches altitude 10° 20:29:29 10° 187° (S) 2,508 5.8 -9.4°
Maximum altitude 20:34:52 42° 118° (ESE) 1,306 4.3 -10.0°
Drops below altitude 10° 20:40:55 10° 50° (NE) 2,815 6.5 -10.6°
Sets 20:43:50 0° 44° (NE) 3,862 7.3 -10.8°
